map of LHKE home
Great Circle Mapper logo
LHKE - Airport
Location
City:  Kecskemét, Bács-Kiskun, Hungary
Name:Kecskemét AB
Old (Alt.):Titan Airport
ICAO:LHKE

Details
Type:Airport (Aerodrome, Airfield)
Use:Military
Latitude:46°55'03"N (46.917500)
Longitude:19°44'57"E (19.749222)
Datum:WGS 1984
Elevation:376 ft (115 m)
Variation:4.64°E (WMM2015 magnetic declination)
0.11° annual change
Runways:1
Longest:8200 × 197 ft (2499 × 60 m), paved

Time
Time Zone:UTC+1 (DST+2)
Local Time:

Weather
METAR:LHKE 262215Z 13008KT 100V160 9999 TS SCT033CB BKN040TCU OVC083 22/18 Q1014 BECMG 6000 TSRA RMK BLU

Related Locations
Nearby:
Farthest:CHT: 11623 mi / 18706 km
Waitangi [Tuuta], Chatham Islands, NZ

Find:

   beyond  
but within

Other Information
Maps:
NOTAMs:
Links:
Sources:

  
flag of Hungary
flag of Bács-Kiskun
  

Sectional Chart

Flight Planning
at skyvector.com

Satellite Image

Google Maps Satellite view

 

Copyright © 2004-2016 Karl L. Swartz. All rights reserved.
The Great Circle Mapper name and logo are trademarks of the Great Circle Mapper.
All other trademarks mentioned herein belong to their respective owners.
Please see credits for attibutions and further copyright information.

  Follow gcmap on Facebook Follow gcmap on Twitter Follow gcmap on Google+ GCmap on LinkedIn

hCard Microformat

Geo Microformat